When you browse on this site, cookies collect data to enhance your experience and personalize the content and advertising you see.
Visit our Privacy Policy to learn more. By continuing to use the site, you agree to this use of cookies and data.
  • In Netherlands
  • List of Countries
  • For 7 days
  • Water Temperature
  • Weather Map
  • Weather Widgets
  • user-avatar
    Login

    Hourly Weather Shulani

    Today, 25 January, Saturday

    Time Temperature Precipitation Wind Pressure Humidity
    00:00 -16°C° 0 mm 2 mps 623 mmHg 59%
    01:00 -15°C° 0 mm 2 mps 623 mmHg 55%
    02:00 -15°C° 0 mm 2 mps 623 mmHg 51%
    03:00 -15°C° 0 mm 2 mps 623 mmHg 46%
    04:00 -15°C° 0 mm 2 mps 623 mmHg 44%
    05:00 -14°C° 0 mm 2 mps 623 mmHg 42%
    06:00 -14°C° 0 mm 2 mps 623 mmHg 40%
    07:00 -12°C° 0 mm 2 mps 623 mmHg 43%
    08:00 -10°C° 0 mm 2 mps 624 mmHg 47%
    09:00 -9°C° 0 mm 2 mps 624 mmHg 50%
    10:00 -7°C° 0 mm 2 mps 625 mmHg 50%
    11:00 -6°C° 0 mm 2 mps 625 mmHg 51%
    12:00 -2°C° 0 mm 1 mps 625 mmHg 51%
    13:00 -2°C° 0 mm 1 mps 625 mmHg 56%
    14:00 -1°C° 0 mm 1 mps 624 mmHg 61%
    15:00 -1°C° 0 mm 1 mps 624 mmHg 67%
    16:00 -2°C° 0 mm 1 mps 623 mmHg 64%
    17:00 -3°C° 0 mm 1 mps 623 mmHg 61%
    18:00 -6°C° 0 mm 1 mps 622 mmHg 57%
    19:00 -4°C° 0 mm 1 mps 622 mmHg 57%
    20:00 -4°C° 0 mm 1 mps 622 mmHg 57%
    21:00 -4°C° 0 mm 1 mps 622 mmHg 57%
    22:00 -6°C° 0 mm 2 mps 622 mmHg 57%
    23:00 -6°C° 0 mm 2 mps 621 mmHg 57%

    Tomorrow, 26 January, Sunday

    Time Temperature Precipitation Wind Pressure Humidity
    00:00 -6°C° 0 mm 2 mps 621 mmHg 57%
    01:00 -6°C° 0 mm 2 mps 621 mmHg 55%
    02:00 -6°C° 0 mm 2 mps 621 mmHg 54%
    03:00 -6°C° 0 mm 2 mps 621 mmHg 53%
    04:00 -6°C° 0 mm 2 mps 621 mmHg 53%
    05:00 -6°C° 0 mm 2 mps 620 mmHg 52%
    06:00 -6°C° 0 mm 2 mps 620 mmHg 51%
    07:00 -5°C° 0 mm 2 mps 621 mmHg 53%
    08:00 -2°C° 0 mm 1 mps 622 mmHg 55%
    09:00 -1°C° 0 mm 1 mps 623 mmHg 56%
    10:00 0°C° 0 mm 1 mps 623 mmHg 58%
    11:00 +1°C° 0 mm 1 mps 623 mmHg 60%
    12:00 +2°C° 0 mm 1 mps 623 mmHg 62%
    13:00 +2°C° 0 mm 1 mps 623 mmHg 67%
    14:00 +1°C° 0 mm 1 mps 623 mmHg 73%
    15:00 0°C° 0 mm 1 mps 623 mmHg 78%
    16:00 -1°C° 0 mm 1 mps 623 mmHg 81%
    17:00 -3°C° 0 mm 1 mps 622 mmHg 84%
    18:00 -6°C° 0 mm 1 mps 622 mmHg 87%
    19:00 -6°C° 0 mm 1 mps 623 mmHg 84%
    20:00 -6°C° 0 mm 1 mps 623 mmHg 82%
    21:00 -6°C° 0 mm 1 mps 623 mmHg 79%
    22:00 -6°C° 0 mm 1 mps 624 mmHg 76%
    23:00 -6°C° 0 mm 1 mps 624 mmHg 74%

    Day after tomorrow, 27 January, Monday

    Time Temperature Precipitation Wind Pressure Humidity
    00:00 -7°C° 0 mm 1 mps 624 mmHg 71%
    01:00 -7°C° 0 mm 1 mps 624 mmHg 71%
    02:00 -7°C° 0 mm 1 mps 624 mmHg 70%
    03:00 -7°C° 0 mm 1 mps 624 mmHg 69%
    04:00 -7°C° 0 mm 1 mps 625 mmHg 69%
    05:00 -7°C° 0 mm 1 mps 625 mmHg 68%
    06:00 -7°C° 0 mm 1 mps 625 mmHg 68%
    07:00 -6°C° 0 mm 1 mps 626 mmHg 68%
    08:00 -4°C° 0 mm 1 mps 626 mmHg 67%
    09:00 -3°C° 0 mm 1 mps 627 mmHg 67%
    10:00 -2°C° 0 mm 1 mps 627 mmHg 66%
    11:00 0°C° 0 mm 1 mps 628 mmHg 64%
    12:00 +1°C° 0 mm 1 mps 628 mmHg 62%
    13:00 +1°C° 0 mm 1 mps 627 mmHg 66%
    14:00 0°C° 0 mm 0 mps 627 mmHg 70%
    15:00 0°C° 0 mm 0 mps 627 mmHg 73%
    16:00 0°C° 0 mm 1 mps 626 mmHg 71%
    17:00 -1°C° 0 mm 1 mps 626 mmHg 68%
    18:00 -4°C° 0 mm 2 mps 625 mmHg 66%
    19:00 -5°C° 0 mm 2 mps 625 mmHg 62%
    20:00 -5°C° 0 mm 2 mps 625 mmHg 58%
    21:00 -5°C° 0 mm 2 mps 625 mmHg 53%
    22:00 -5°C° 0 mm 2 mps 625 mmHg 51%
    23:00 -5°C° 0 mm 2 mps 625 mmHg 50%

    28 January, Tuesday

    Time Temperature Precipitation Wind Pressure Humidity
    00:00 -5°C° 0 mm 2 mps 625 mmHg 48%
    01:00 -5°C° 0 mm 2 mps 624 mmHg 47%
    02:00 -5°C° 0 mm 2 mps 624 mmHg 46%
    03:00 -6°C° 0 mm 3 mps 624 mmHg 46%
    04:00 -6°C° 0 mm 3 mps 624 mmHg 46%
    05:00 -6°C° 0 mm 3 mps 623 mmHg 46%
    06:00 -6°C° 0 mm 3 mps 623 mmHg 46%
    07:00 -5°C° 0 mm 3 mps 624 mmHg 48%
    08:00 -4°C° 0 mm 3 mps 624 mmHg 51%
    09:00 -3°C° 0 mm 2 mps 624 mmHg 53%
    10:00 -1°C° 0 mm 2 mps 624 mmHg 56%
    11:00 +2°C° 0 mm 1 mps 624 mmHg 59%
    12:00 +4°C° 0 mm 1 mps 624 mmHg 62%
    13:00 +4°C° 0 mm 1 mps 624 mmHg 62%
    14:00 +4°C° 0 mm 1 mps 623 mmHg 61%
    15:00 +4°C° 0 mm 1 mps 623 mmHg 61%
    16:00 +1°C° 0 mm 2 mps 622 mmHg 58%
    17:00 -1°C° 0 mm 2 mps 622 mmHg 56%
    18:00 -2°C° 0 mm 3 mps 621 mmHg 54%
    19:00 -2°C° 0 mm 3 mps 621 mmHg 51%
    20:00 -2°C° 0 mm 3 mps 621 mmHg 49%
    21:00 -2°C° 0 mm 3 mps 621 mmHg 47%
    22:00 -2°C° 0 mm 3 mps 620 mmHg 47%
    23:00 -2°C° 0 mm 3 mps 620 mmHg 46%

    29 January, Wednesday

    Time Temperature Precipitation Wind Pressure Humidity
    00:00 -2°C° 0 mm 3 mps 620 mmHg 46%
    01:00 -2°C° 0 mm 3 mps 620 mmHg 47%
    02:00 -2°C° 0 mm 3 mps 619 mmHg 48%
    03:00 -2°C° 0 mm 3 mps 619 mmHg 49%
    04:00 -2°C° 0 mm 3 mps 619 mmHg 49%
    05:00 -2°C° 0 mm 3 mps 619 mmHg 50%
    06:00 -2°C° 0 mm 3 mps 619 mmHg 50%
    07:00 -2°C° 0 mm 3 mps 619 mmHg 53%
    08:00 -2°C° 0 mm 2 mps 620 mmHg 55%
    09:00 -1°C° 0 mm 2 mps 620 mmHg 58%
    10:00 +1°C° 0 mm 2 mps 620 mmHg 60%
    11:00 +3°C° 0 mm 1 mps 620 mmHg 62%
    12:00 +4°C° 0 mm 1 mps 621 mmHg 64%
    13:00 +4°C° 0 mm 1 mps 621 mmHg 65%
    14:00 +3°C° 0 mm 1 mps 620 mmHg 67%
    15:00 +3°C° 0 mm 1 mps 620 mmHg 68%
    16:00 +2°C° 0 mm 1 mps 620 mmHg 68%
    17:00 +1°C° 0 mm 1 mps 620 mmHg 68%
    18:00 -2°C° 0 mm 2 mps 620 mmHg 68%
    19:00 -2°C° 0 mm 2 mps 620 mmHg 67%
    20:00 -2°C° 0 mm 2 mps 620 mmHg 65%
    21:00 -3°C° 0 mm 2 mps 620 mmHg 63%
    22:00 -3°C° 0 mm 2 mps 620 mmHg 64%
    23:00 -3°C° 0 mm 2 mps 620 mmHg 64%

    30 January, Thursday

    Time Temperature Precipitation Wind Pressure Humidity
    00:00 -4°C° 0 mm 2 mps 620 mmHg 65%
    01:00 -4°C° 0 mm 2 mps 620 mmHg 66%
    02:00 -4°C° 0 mm 2 mps 620 mmHg 67%
    03:00 -4°C° 0 mm 2 mps 620 mmHg 68%
    04:00 -4°C° 0 mm 2 mps 620 mmHg 69%
    05:00 -4°C° 0 mm 2 mps 620 mmHg 70%
    06:00 -4°C° 0 mm 2 mps 620 mmHg 70%
    07:00 -4°C° 0 mm 2 mps 620 mmHg 70%
    08:00 -3°C° 0 mm 2 mps 620 mmHg 70%
    09:00 -2°C° 0 mm 2 mps 621 mmHg 70%
    10:00 -1°C° 0 mm 2 mps 621 mmHg 69%
    11:00 +2°C° 0 mm 1 mps 621 mmHg 67%
    12:00 +3°C° 0 mm 1 mps 621 mmHg 66%
    13:00 +3°C° 0 mm 1 mps 621 mmHg 66%
    14:00 +4°C° 0 mm 1 mps 621 mmHg 66%
    15:00 +4°C° 0 mm 1 mps 621 mmHg 66%
    16:00 +2°C° 0 mm 1 mps 621 mmHg 66%
    17:00 -1°C° 0 mm 2 mps 620 mmHg 67%
    18:00 -2°C° 0 mm 2 mps 620 mmHg 67%
    19:00 -2°C° 0 mm 3 mps 620 mmHg 65%
    20:00 -2°C° 0 mm 3 mps 620 mmHg 63%
    21:00 -4°C° 0 mm 3 mps 619 mmHg 61%
    22:00 -4°C° 0 mm 3 mps 619 mmHg 61%
    23:00 -4°C° 0 mm 4 mps 618 mmHg 61%
    Show more